TimeMST,TemperatureF,Dew PointF,Humidity,Sea Level PressureIn,VisibilityMPH,Wind Direction,Wind SpeedMPH,Gust SpeedMPH,PrecipitationIn,Events,Conditions,WindDirDegrees,DateUTC
1:53 AM,28.0,21.9,78,30.14,10.0,Calm,Calm,-,N/A,,Clear,0,2012-12-01 08:53:00
2:53 AM,30.0,21.9,72,30.14,10.0,NNE,5.8,-,N/A,,Clear,20,2012-12-01 09:53:00
5:53 AM,21.0,18.0,88,30.23,10.0,NE,5.8,-,N/A,,Clear,40,2012-12-01 12:53:00
6:53 AM,25.0,19.0,78,30.24,10.0,North,4.6,-,N/A,,Clear,360,2012-12-01 13:53:00
8:53 AM,34.0,24.1,67,30.25,10.0,ESE,3.5,-,N/A,,Clear,110,2012-12-01 15:53:00
9:53 AM,39.9,24.1,53,30.25,10.0,East,8.1,-,N/A,,Clear,100,2012-12-01 16:53:00
10:53 AM,46.0,24.1,42,30.20,10.0,ENE,5.8,-,N/A,,Clear,70,2012-12-01 17:53:00
11:53 AM,51.1,25.0,36,30.18,10.0,Calm,Calm,-,N/A,,Clear,0,2012-12-01 18:53:00
12:53 PM,53.1,26.1,35,30.13,10.0,SW,10.4,-,N/A,,Clear,220,2012-12-01 19:53:00
1:53 PM,55.0,26.1,33,30.12,10.0,WSW,11.5,-,N/A,,Clear,240,2012-12-01 20:53:00
2:53 PM,54.0,24.1,31,30.12,10.0,SW,6.9,-,N/A,,Clear,230,2012-12-01 21:53:00
3:53 PM,52.0,25.0,35,30.15,10.0,SSW,11.5,-,N/A,,Clear,210,2012-12-01 22:53:00
4:53 PM,46.0,24.1,42,30.19,10.0,South,4.6,-,N/A,,Clear,180,2012-12-01 23:53:00
5:53 PM,44.1,24.1,45,30.24,10.0,Calm,Calm,-,N/A,,Clear,0,2012-12-02 00:53:00
6:53 PM,35.1,21.9,59,30.28,10.0,North,4.6,-,N/A,,Clear,10,2012-12-02 01:53:00
7:53 PM,35.1,23.0,61,30.27,10.0,NNE,3.5,-,N/A,,Clear,20,2012-12-02 02:53:00
8:53 PM,34.0,23.0,64,30.26,10.0,Calm,Calm,-,N/A,,Clear,0,2012-12-02 03:53:00
9:53 PM,32.0,23.0,69,30.25,10.0,Calm,Calm,-,N/A,,Clear,0,2012-12-02 04:53:00
10:53 PM,32.0,23.0,69,30.22,10.0,NNW,4.6,-,N/A,,Clear,340,2012-12-02 05:53:00
11:53 PM,28.0,21.0,75,30.21,10.0,NE,3.5,-,N/A,,Clear,40,2012-12-02 06:53:00